BREEZE-M DEB, 38607

Orbit data source: Space-Track

BREEZE-M DEB, 38607 is space debris in HEO originally from a launch on Fri, 14 Mar 2008 UTC launched from the Tyuratam Missile And Space Complex (TTMTR). Debris objects in space refer to the collection of defunct objects orbiting the Earth. Examples of debris include non-operational satellites, rocket bodies, and fragments generated from explosions, collisions, or faulty payload assembly.

Loading next visibility...
Identifier
38607, 2008-011BE
Orbit
HEO
Country
Flag of CISCIS
Related business
Manufacturer
Unknown
Mission
Spacecraft
Bus & Motor
Unknown
Mass
Unknown
Launch date (UTC)
2008-03-14 (18 years ago)
Launch vehicle
Unknown
Launch site
Tyuratam Missile And Space Complex (TTMTR)
Object type
Payload
Rocket body
Debris
Shape & HBR
Unknown shape, 0.3 m
Radar Cross Section
Medium (>0.1 m² and <1 m²)

Expand to show TLE details & history
Last TLE update: 3 days ago

TLE from 3 days ago
0 BREEZE-M DEB
1 38607U 08011BE  26170.93820425 -.00000764  00000-0 -93740-2 0  9997
2 38607  49.7470  58.9648 6486898 122.9101 355.6955  3.05962801171957
Epoch: 2026-06-19T22:31Z
TLE epoch observation values (Epoch: 2026-06-19T22:31:00.847Z)
Latitude
49.37899°
Longitude
-85.89113°
Altitude
961.901 km
Speed
9.428 km/s
True Right ascension
10h 40m 05s
True Declination
49° 12' 49"
Sunlit
Object was in daylight at epoch
Visualization orbit readout
Latitude
Unknown
Longitude
Unknown
Altitude
Unknown
Speed
Unknown
Apparent Right ascension
Unknown
Apparent Declination
Unknown
Sunlit
N/A
Visualization observer readout
Local Sidereal Time
00:39:48
Azimuth
Unknown
Elevation
Unknown
Doppler factor
Unknown
Orbital elements
Apogee altitude
26,667.106 km
Perigee altitude
663.291 km
Semi-major axis
20,043.336 km
Eccentricity
0.64869
Inclination
49.747°
RAAN
58.9648°
Arg. of periapsis
122.9101°
True anomaly
334.16381°
Mean anomaly
355.6955°
Eccentric anomaly
347.91249°
Mean motion
0.76487 °/min
Orbital period
470.67 mins
BSTAR
-0.009374
Loading maneuver chart data...
Computing Atmospheric mass density...
Loading historical data...
Loading historical data...
Loading historical data...
Loading historical data...
Loading historical data...
Loading historical data...
Loading historical data...

Documentation

Showing up to 5 results
|